www.pogodaiklimat.ru

ПОГОДА в Николае, AK

  • Прогноз погоды в Николае
  • Монитор погоды в Николае
  • Климат в Николае

АРХИВ ПОГОДЫ в Николае

Время (UTC), дата Ветер
(напр.,м/с)
 
Видим.   Явления Облачность Т
(С)
Тd
(С)
f
(%)
Тe
(С)
Тes
(С)
Комфортность

P
(гПа)

Po
(гПа)
Тmin
(С)
Tmax
(С)
R
(мм)
SD
(см)
10:01 24.05 Ю  16 км    2/0 2100 м
[средняя] 
+9.4  +5.6  77  +7  +7    1021.2  1004.0         
12:01 24.05 ЮЗ  16 км    10/0 2400 м
[средняя] 
+10.0  +5.6  74  +8  +8    1022.4  1005.0         
13:01 24.05 Ю  16 км    10/0 2400 м
[средняя] 
+10.0  +5.6  74  +8  +8    1022.7  1005.4         
14:01 24.05 ЮЗ  16 км    10/0 2250 м
[средняя] 
+10.6  +5.0  68  +9  +9    1023.1  1005.7         
15:01 24.05 ЮЗ  16 км    10/0 2100 м
[средняя] 
+11.1  +5.0  66  +9  +9    1023.4  1006.0         
16:01 24.05 ЮЗ  16 км    10/0 2400 м
[средняя] 
+11.7  +5.0  63  +10  +11    1023.8  1006.7         
17:01 24.05 ЮЗ  16 км    10/0 2700 м
[средняя] 
+12.8  +5.0  59  +11  +12    1024.0  1006.7  +9.4  +12.8     
18:01 24.05 ЮЗ  16 км    10/0 2550 м
[средняя] 
+13.9  +5.0  55  +13  +14    1024.0  1006.7         
19:01 24.05 ЮЗ  5
{8} 
16 км    10/0 2850 м
[средняя] 
+15.0  +5.0  51  +13  +15    1024.0  1006.7         
20:01 24.05 З  16 км    10/0 2250 м
[средняя] 
+15.6  +5.6  51  +14  +16    1023.8  1006.7         
21:01 24.05 З  4
{7} 
16 км    10/0 2850 м
[средняя] 
+16.7  +5.6  48  +16  +18    1023.4  1006.4         
22:01 24.05 ЮЗ  13 км    10/2 1470 м
[средняя] 
+17.2  +5.6  46  +17  +18    1023.2  1006.0         
23:01 24.05 З  16 км    8/8 1500 м
[средняя] 
+18.3  +5.6  43  +18  +19    1022.8  1005.7  +12.8  +18.9     
00:01 25.05 СЗ  16 км    10/0 2100 м
[средняя] 
+17.2  +5.6  46  +17  +19    1022.5  1005.4         
01:01 25.05 С  16 км    8/0 2400 м
[средняя] 
+17.8  +6.1  46  +18  +21    1022.3  1005.0         
02:01 25.05 С  16 км    10/0 2550 м
[средняя] 
+18.3  +6.1  45  +19  +20    1021.8  1004.7         
03:01 25.05 нст  14 км    2/0 2550 м
[средняя] 
+18.9  +6.1  43  +20  +23    1021.2  1004.0         
04:01 25.05 СВ  16 км    8/0 2700 м
[средняя] 
+18.3  +5.6  43  +19  +19    1020.9  1003.7         
05:01 25.05 СВ  16 км    5/0 2700 м
[средняя] 
+17.2  +6.1  48  +17  +18    1021.0  1004.0  +16.7  +18.9     
06:01 25.05 СВ  16 км    ясно  +14.4  +6.7  60  +14  +15    1020.7  1003.7         
07:01 25.05 СВ  16 км    ясно  +11.7  +6.1  68  +10  +10    1020.7  1003.4         
08:01 25.05   16 км    ясно  +9.4  +6.1  80  +9  +9    1020.7  1003.4         
09:01 25.05 ЮВ  16 км    ясно  +8.3  +5.6  83  +7  +7    1020.6  1003.4         
10:01 25.05 СВ  16 км    ясно  +7.8  +5.6  86  +6  +6    1020.3  1003.0         
11:01 25.05 В  16 км    ясно  +8.3  +6.7  90  +7  +7    1019.6  1002.4  +7.2  +17.2     
12:01 25.05 СВ  16 км    ясно  +7.8  +6.1  89  +5  +5    1018.9  1001.7         
13:01 25.05 В  16 км    ясно  +7.8  +6.7  93  +5  +5    1018.5  1001.4         
14:01 25.05 В  16 км    ясно  +10.0  +7.2  83  +7  +8    1017.9  1000.7         
15:01 25.05 СВ  16 км    ясно  +12.2  +7.2  71  +10  +11    1016.9  1000.0         
16:01 25.05 СВ  16 км    ясно  +14.4  +5.6  55  +13  +15    1015.8  999.0         
17:01 25.05 В  3
{7} 
16 км    ясно  +15.6  +5.0  49  +15  +20    1014.9  998.0  +7.2  +15.6     
18:01 25.05 В  16 км    ясно  +16.7  +4.4  44  +16  +21    1014.1  997.0         
19:01 25.05 нст  16 км    ясно  +17.8  +5.0  43  +18  +26    1013.4  996.4         
20:01 25.05 Ю  4
{7} 
16 км    ясно  +18.9  +3.3  35  +19  +27    1012.7  995.7         
21:01 25.05 ЮВ  4
{8} 
16 км    8/0 3600 м
[средняя] 
+17.8  +2.2  35  +17  +21    1012.2  995.0         
22:01 25.05 ЮВ  4
{7} 
16 км    ясно  +17.2  +2.2  36  +17  +24    1011.9  994.7         
23:01 25.05 ЮВ  4
{9} 
16 км  слабый дождь  10/5 1950 м
[средняя] 
+12.8  +6.1  64  +11  +12    1012.5  995.4  +12.8  +19.4     
00:01 26.05 нст  16 км  слабый дождь  10/0 2100 м
[средняя] 
+12.2  +6.1  66  +11  +13    1012.3  995.0         
01:01 26.05 нст  16 км    10/5 1650 м
[средняя] 
+14.4  +5.0  53  +14  +15    1011.7  994.4         
02:01 26.05 нст  3
{8} 
16 км    10/10 1800 м  +14.4  +3.9  49  +13  +13    1011.0  994.0         
03:01 26.05 ЮВ  4
{8} 
16 км    10/0 2100 м
[средняя] 
+15.0  +2.8  44  +14  +15    1010.1  993.0         
04:01 26.05 нст  16 км    5/0 3600 м
[средняя] 
+15.0  +3.3  45  +15  +15    1009.7  993.0         
05:01 26.05 нст  16 км    5/0 2400 м
[средняя] 
+14.4  +3.3  47  +15  +15    1010.0  993.0  +11.7  +15.6     
06:01 26.05 Ю  16 км    ясно  +12.2  +5.6  64  +12  +12    1010.7  993.7         
07:01 26.05 ЮЗ  16 км    ясно  +11.1  +7.2  77  +10  +10    1011.1  994.4         
08:01 26.05   16 км    ясно  +9.4  +7.8  90  +9  +9    1011.1  994.0         
09:01 26.05 ЮЗ  16 км    2/0 3300 м
[средняя] 
+10.0  +7.8  86  +8  +8    1011.2  994.4         
10:01 26.05 Ю  16 км    10/10 1380 м  +9.4  +8.3  93  +8  +8    1011.1  994.0         

 

Местоположение метеостанции Nikolai Airport: широта 63.0190 долгота -154.3580 высота над уровнем моря 126 м.

В архиве по умолчанию представлена погода в Николае за последние 1-2 суток. Обновление информации о фактической погоде в базе происходит ежечасно! Архивные данные за месяц целиком и за предыдущие месяцы Вы можете получить, выбрав интересующий диапазон дат из раскрывающегося списка и нажав кнопку "Ввод!".

Внимание! Архив погоды МЕТАР в базе сайта хранится не более 60 дней. Нет смысла пытаться выбрать более раннюю дату.

Внимание! Время в таблицах - всемирное. Для получения местного времени необходимо прибавить поправку, которая в Николае равна -9 ч.

Ветер - указаны скорость ветра в м/с и направление, откуда дует ветер: С - северный, СВ - северо-восточный, В - восточный, ЮВ - юго-восточный, Ю - южный, ЮЗ - юго-западный, З - западный, СЗ - северо-западный.
Видимость - горизонтальная дальность видимости в метрах или километрах. При видимости от 1 до 10 км при отсутствии осадков обычно наблюдается дымка, при ухудшении видимости до 1 км и менее - туман. В сухую погоду видимость может ухудшаться дымом, пылью или мглою.
Атмосферные явления - указаны явления, наблюдавшиеся в указанный момент времени.
Облачность - указаны через наклонную черту верхняя и нижняя облачность в баллах и высота нижней границы облаков в метрах. Внимание: облачность, как и прочие метеорологические величины в США измеряются автоматическими метеостанциями. Указанные значения в баллах носят условный характер и показывают процент времени, в течение которого, в среднем, лазерный луч высотомера отражался от облаков обратно.
T - Температура воздуха - температура, измеренная на высоте 2 м над землей.
Td - Температура точки росы - температура, при понижении до которой содержащийся в воздухе водяной пар достигнет насыщения.
f - Относительная влажность воздуха - влажноcть воздуха, измеренная на высоте 2 м над землей.
Te - Эффективная температура - температура, которую ощущает одетый по сезону человек в тени. Характеристика душности погоды. При расчете учитывается влияние влажности воздуха и скорости ветра на теплоощущения человека.
Tes - Эффективная температура на солнце - температура, которую ощущает человек, с поправкой на солнечный нагрев. Характеристика знойности погоды. Зависит от высоты солнца над горизонтом, облачности и скорости ветра. Ночью, в пасмурную погоду, а также при ветре 12 м/с и более поправка равна нулю.
P - Атмосферное давление - приведенное к уровню моря атмосферное давление.
Po - Атмосферное давление - измеренное на уровне метеостанции атмосферное давление.
Tmin - Минимальная температура - минимум температуры воздуха на высоте 2 м над землей.
Tmax - Максимальная температура - максимум температуры воздуха на высоте 2 м над землей.
R - Количество осадков - Количество выпавших осадков за 3 или 6 часов, мм.
SD - Снежный покров - Высота снежного покрова, см.